www.pogodaiklimat.ru

Погода и климат >> Архив погоды >> Австралия >> Квинсленд >> Ричмонд


ПОГОДА в Ричмонде

  • Прогноз погоды в Ричмонде
  • Монитор погоды в Ричмонде

АРХИВ ПОГОДЫ в Ричмонде

Время (UTC), дата Ветер
(напр.,м/с)
 
Видим.   Явления Облачность Т
(С)
Тd
(С)
f
(%)
Тe
(С)
Тes
(С)
Комфортность P
(гПа)
Po
(гПа)
Тmin
(С)
Tmax
(С)
R
(мм)
R24
(мм)
S
(см)
05 13.02 З 8 н/о н/о +35.2 +21.5 45 +43 +43 опасность
перегрева
1006.4 983.4
06 13.02 З 6 н/о н/о +35.5 +22.1 46 +44 +44 опасность
перегрева
1005.8 982.8
08 13.02 З 5 н/о н/о +34.9 +19.3 40 +40 +40 очень
душно
1005.7 982.7
09 13.02 З 3 н/о н/о +31.6 +20.2 51 +38 +38 очень
душно
1005.9 982.9
11 13.02 З 3 н/о н/о +28.9 +20.9 62 +36 +36 очень
душно
1006.5 983.5
12 13.02 СЗ 3 н/о н/о +28.1 +21.6 68 +36 +36 очень
душно
1006.8 983.8
14 13.02 Ю 2 н/о н/о +27.4 +21.9 72 +35 +35 очень
душно
1007.4 984.4 +36.0
15 13.02 ЮЗ 3 н/о н/о +26.3 +21.9 77 +34 +34 очень
душно
1007.1 984.1
17 13.02 Ю 5 н/о 10/10 300 м
[]
+23.7 +17.7 69 +28 +28 душно 1006.8 983.8
18 13.02 Ю 3 н/о н/о +22.9 +17.8 73 +28 +28 душно 1007.2 984.2
20 13.02 Ю 3 н/о 10/10 600 м
[]
+21.5 +18.7 84 +26 +26 душно 1008.3 985.3
21 13.02 Ю 1 н/о н/о +22.0 +19.2 84 +27 +27 душно 1009.4 986.3
23 13.02 Ю 5 н/о 9/9 1000 м
[]
+27.7 +15.0 46 +30 +31 жарко 1010.4 987.3
00 14.02 ЮВ 6 н/о н/о +29.7 +13.0 36 +31 +31 жарко 1010.5 987.4
02 14.02 ЮВ 3 н/о 10/10 600 м
[]
+32.4 +13.1 31 +33 +33 жарко 1009.6 986.5 +21.4
03 14.02 Ю 4 н/о н/о +33.6 +12.0 27 +34 +34 очень
жарко
1008.8 985.8
05 14.02 Ю 5 н/о 4/4 1000 м
[]
+35.0 +11.4 24 +35 +39 очень
жарко
1007.6 984.6
06 14.02 Ю 5 н/о н/о +35.7 +11.4 23 +35 +35 очень
жарко
1007.2 984.2
08 14.02 Ю 6 н/о н/о +34.2 +12.0 26 +34 +34 очень
жарко
1007.4 984.4
09 14.02 Ю 6 н/о н/о +31.3 +13.1 33 +32 +32 жарко 1008.2 985.2
11 14.02 Ю 4 н/о н/о +26.7 +16.6 54 +30 +30 душно 1010.1 987.0
12 14.02 Ю 3 н/о н/о +25.7 +17.1 59 +30 +30 душно 1010.5 987.4
14 14.02 ЮВ 3 н/о н/о +24.3 +16.8 63 +28 +28 душно 1010.8 987.7 +36.1
15 14.02 Ю 4 н/о н/о +22.4 +18.0 76 +27 +27 душно 1010.4 987.3
17 14.02 Ю 4 н/о н/о +21.3 +14.5 65 +24 +24 комфорт 1009.5 986.4
18 14.02 Ю 3 н/о н/о +20.3 +14.2 68 +23 +23 комфорт 1009.7 986.6
20 14.02 СВ 3 н/о н/о +19.6 +14.8 74 +22 +22 комфорт 1010.9 987.8
21 14.02 СВ 2 н/о н/о +20.2 +15.6 75 +23 +23 комфорт 1011.6 988.5
23 14.02 В 3 н/о н/о +29.1 +12.1 35 +30 +30 жарко 1012.0 988.9
00 15.02 СВ 3 н/о н/о +31.1 +9.3 26 +30 +30 жарко 1012.0 988.9
02 15.02 СВ 2 н/о н/о +34.3 +9.5 22 +33 +33 жарко 1011.4 988.3 +19.0
03 15.02 ЮЗ 3 н/о н/о +34.8 +8.5 20 +33 +33 жарко 1010.8 987.7
05 15.02 З 3 н/о н/о +36.0 +9.5 20 +35 +35 очень
жарко
1008.8 985.8
06 15.02 Ю 4 н/о н/о +36.0 +10.9 22 +35 +35 очень
жарко
1008.4 985.4
08 15.02 ЮЗ 4 н/о н/о +35.3 +10.4 22 +34 +34 очень
жарко
1008.2 985.2
09 15.02 ЮЗ 3 н/о н/о +31.8 +14.4 35 +34 +34 душно 1008.3 985.3
11 15.02 ЮЗ 2 н/о н/о +28.1 +16.1 48 +31 +31 душно 1010.2 987.1
12 15.02 ЮЗ 3 н/о н/о +27.1 +14.8 47 +30 +30 душно 1010.6 987.5
14 15.02 В 4 н/о н/о +26.8 +16.7 54 +30 +30 душно 1011.1 988.0 +37.7
15 15.02 В 2 н/о н/о +23.7 +18.4 72 +28 +28 душно 1010.5 987.4
17 15.02 ЮЗ 1 н/о н/о +22.7 +18.5 77 +28 +28 душно 1009.3 986.2
18 15.02 ЮЗ 4 н/о н/о +21.8 +17.6 77 +26 +26 душно 1009.6 986.5
20 15.02 ЮВ 1 н/о н/о +21.3 +18.3 83 +26 +26 душно 1010.4 987.3
21 15.02 В 2 н/о н/о +21.6 +19.3 87 +27 +27 душно 1011.1 988.0
23 15.02 СЗ 4 н/о н/о +29.1 +15.2 43 +32 +32 душно 1012.0 988.9
00 16.02 С 4 н/о н/о +31.7 +13.0 32 +33 +33 жарко 1012.5 989.4
02 16.02 С 4 н/о н/о +34.4 +15.3 32 +36 +36 душно 1011.2 988.1 +20.8
03 16.02 СЗ 2 н/о н/о +35.1 +15.4 31 +37 +37 очень
душно
1010.4 987.3
05 16.02 З 3 н/о н/о +36.1 +14.7 28 +37 +37 душно 1008.3 985.3
06 16.02 З 4 н/о н/о +36.3 +14.9 28 +38 +38 очень
душно
1007.4 984.4
08 16.02 З 3 н/о н/о +35.7 +13.2 26 +36 +36 очень
жарко
1007.5 984.5
09 16.02 СВ 7 н/о н/о +31.7 +17.2 42 +35 +35 очень
душно
1008.2 985.2
11 16.02 С 4 н/о н/о +28.6 +19.0 56 +34 +34 очень
душно
1009.5 986.4
12 16.02 С 3 н/о н/о +27.7 +19.5 61 +33 +33 очень
душно
1009.7 986.6
14 16.02 штиль 0 н/о н/о +26.0 +20.8 73 +33 +33 очень
душно
1009.3 986.2 +37.1
15 16.02 В 3 н/о н/о +25.4 +20.0 72 +31 +31 очень
душно
1009.0 985.9
17 16.02 СВ 3 н/о 10/0
[]
+25.7 +20.3 72 +32 +32 очень
душно
1008.0 985.0
18 16.02 СВ 3 н/о н/о +25.6 +20.4 73 +32 +32 очень
душно
1008.1 985.1
20 16.02 С 2 н/о 4/0
[]
+25.1 +20.8 77 +31 +31 очень
душно
1009.3 986.2
21 16.02 С 3 н/о н/о +25.6 +21.7 79 +33 +33 очень
душно
1010.1 987.0
23 16.02 З 6 н/о 1/0
[]
+29.5 +21.4 62 +37 +41 очень
душно
1011.0 987.9
00 17.02 З 6 н/о н/о +31.4 +20.0 51 +38 +38 очень
душно
1011.3 988.2
02 17.02 З 4 н/о 1/0
[]
+33.7 +20.1 45 +40 +53 опасность
солнечного
удара
1010.1 987.0 +24.7
03 17.02 З 4 н/о н/о +34.7 +18.3 38 +39 +39 очень
душно
1009.0 985.9
05 17.02 ЮЗ 3 н/о н/о +36.1 +16.8 32 +39 +39 очень
душно
1006.6 983.6
06 17.02 З 4 н/о н/о +36.6 +16.2 30 +39 +39 очень
душно
1005.8 982.8
08 17.02 З 4 н/о н/о +35.7 +14.9 29 +37 +37 душно 1005.5 982.5
09 17.02 З 3 н/о н/о +32.5 +16.8 39 +36 +36 очень
душно
1005.9 982.9
11 17.02 штиль 0 н/о н/о +30.5 +19.2 51 +36 +36 очень
душно
1006.9 983.9
12 17.02 штиль 0 н/о н/о +29.0 +21.2 63 +37 +37 очень
душно
1007.4 984.4
14 17.02 В 4 н/о н/о +27.8 +19.8 62 +34 +34 очень
душно
1007.7 984.7 +37.2
15 17.02 С 4 н/о н/о +27.9 +19.9 62 +34 +34 очень
душно
1007.5 984.5
17 17.02 С 4 н/о н/о +26.9 +20.7 69 +34 +34 очень
душно
1007.2 984.2
18 17.02 СЗ 4 н/о н/о +26.2 +20.8 72 +33 +33 очень
душно
1007.2 984.2
20 17.02 СЗ 4 н/о н/о +24.7 +20.8 79 +31 +31 очень
душно
1008.2 985.2
21 17.02 С 4 н/о н/о +25.7 +21.8 79 +33 +33 очень
душно
1009.0 985.9
23 17.02 СЗ 6 н/о н/о +29.6 +23.1 68 +40 +40 очень
душно
1010.3 987.2
00 18.02 З 7 н/о н/о +31.2 +22.5 60 +41 +41 опасность
перегрева
1010.2 987.1
02 18.02 СЗ 6 н/о 1/0
[]
+34.1 +21.9 49 +43 +50 опасность
перегрева
1009.1 986.0 +24.6
03 18.02 СЗ 6 н/о н/о +34.8 +21.1 45 +42 +42 опасность
перегрева
1008.1 985.1
05 18.02 З 5 н/о 1/0 2000 м
[]
+36.3 +18.4 35 +40 +47 очень
душно
1006.0 983.0
06 18.02 З 4 н/о н/о +37.0 +17.6 32 +40 +40 очень
душно
1005.4 982.4
08 18.02 З 4 н/о н/о +35.9 +17.1 33 +39 +39 очень
душно
1005.5 982.5
09 18.02 З 3 н/о н/о +32.9 +19.0 44 +38 +38 очень
душно
1005.9 982.9
11 18.02 СЗ 4 н/о н/о +30.4 +19.4 52 +36 +36 очень
душно
1007.1 984.1
12 18.02 СЗ 4 н/о н/о +29.5 +19.5 55 +35 +35 очень
душно
1007.2 984.2
14 18.02 СЗ 4 н/о н/о +27.7 +20.0 63 +34 +34 очень
душно
1007.1 984.1 +37.4
15 18.02 СЗ 4 н/о н/о +26.3 +19.9 68 +32 +32 очень
душно
1006.5 983.5
17 18.02 СЗ 4 н/о н/о +26.0 +19.9 69 +32 +32 очень
душно
1006.4 983.4
18 18.02 С 4 н/о н/о +25.9 +20.7 73 +32 +32 очень
душно
1006.6 983.6
20 18.02 СЗ 5 н/о н/о +25.6 +21.7 79 +33 +33 очень
душно
1007.8 984.8
21 18.02 СЗ 6 н/о н/о +26.1 +22.6 81 +34 +34 очень
душно
1008.3 985.3
23 18.02 СЗ 8 н/о 6/6 300 м
[]
+29.3 +23.5 71 +40 +41 очень
душно
1009.7 986.6
00 19.02 СЗ 7 н/о н/о +31.2 +23.8 65 +43 +43 опасность
перегрева
1009.5 986.4
02 19.02 З 7 н/о н/о +34.3 +23.0 52 +44 +44 опасность
перегрева
1008.3 985.3 +25.5
03 19.02 З 8 н/о н/о +35.9 +22.8 47 +46 +46 опасность
перегрева
1007.2 984.2
05 19.02 З 6 н/о н/о +37.4 +19.8 36 +43 +43 опасность
перегрева
1005.5 982.5
06 19.02 З 6 н/о н/о +37.8 +19.7 35 +43 +43 опасность
перегрева
1004.9 981.9
08 19.02 СЗ 3 н/о н/о +36.5 +16.6 31 +39 +39 очень
душно
1004.9 981.9
09 19.02 СЗ 2 н/о н/о +34.0 +17.7 38 +38 +38 очень
душно
1005.0 982.0
11 19.02 З 2 н/о н/о +31.7 +18.7 46 +37 +37 очень
душно
1006.3 983.3
12 19.02 С 3 н/о н/о +29.1 +21.1 62 +37 +37 очень
душно
1006.8 983.8
14 19.02 С 4 н/о н/о +27.8 +20.9 66 +35 +35 очень
душно
1006.5 983.5 +38.4
15 19.02 З 3 н/о н/о +25.6 +20.4 73 +32 +32 очень
душно
1006.6 983.6
17 19.02 СЗ 5 н/о н/о +25.5 +21.4 78 +32 +32 очень
душно
1006.4 983.4
18 19.02 СЗ 4 н/о н/о +25.6 +22.5 83 +34 +34 очень
душно
1006.7 983.7
20 19.02 СЗ 4 н/о н/о +25.4 +23.6 90 +35 +35 очень
душно
1008.2 985.2
21 19.02 СЗ 4 н/о н/о +26.4 +24.2 88 +37 +37 очень
душно
1009.2 986.1
23 19.02 СЗ 7 н/о н/о +30.4 +24.8 72 +43 +43 опасность
перегрева
1009.8 986.7
00 20.02 З 6 н/о н/о +32.4 +23.9 61 +44 +44 опасность
перегрева
1009.8 986.7
02 20.02 СЗ 3 н/о н/о +35.5 +17.2 34 +39 +39 очень
душно
1008.4 985.4 +24.8
03 20.02 ЮВ 2 н/о н/о +36.8 +15.3 28 +38 +38 очень
душно
1007.1 984.1

 

Местоположение метеостанции Ричмонд (Квинсленд, Австралия): широта -20.70 долгота 143.11 высота над уровнем моря 207 м.

В архиве по умолчанию представлена погода в Ричмонде за последнюю неделю. Архивные данные за месяц целиком и за предыдущие месяцы, начиная с января 2011 года, Вы можете получить, выбрав интересующий диапазон дат из раскрывающегося списка и нажав кнопку "Ввод!".


*Определитесь, кто Вы:
робот инопланетянин человек

Внимание! Время в таблицах - всемирное. Для получения местного времени необходимо прибавить поправку, которая равна 10 ч.

Смотрите также архив погоды в соседних городах и на ближайших метеорологических станциях:

Погода в Хьюэндене (Квинсленд, Австралия) (117 км)
Погода в Джулия Крик (Квинсленд, Австралия) (144 км)
Погода в Уинтоне (Квинсленд, Австралия) (186 км)
Погода в Аэропорту Трепелл (Квинсленд, Австралия) (263 км)
Погода в Джорджтауне (Квинсленд, Австралия) (271 км)
Погода в Клонкарри (Квинсленд, Австралия) (272 км)
Погода в Лонгриче (Квинсленд, Австралия) (327 км)
Погода в Фосфат-Хилл (Квинсленд, Австралия) (353 км)
Погода на Озере Джулиус (Квинсленд, Австралия) (358 км)
Погода на Маунт-Айза (Квинсленд, Австралия) (378 км)

Пояснения к столбцам:

Ветер - указаны скорость ветра в м/с - средняя за 10 мин, порывы в срок и между сроками (в фигурных скобках) и направление, откуда дует ветер: С - северный, СВ - северо-восточный, В - восточный, ЮВ - юго-восточный, Ю - южный, ЮЗ - юго-западный, З - западный, СЗ - северо-западный.
Видимость - горизонтальная дальность видимости в метрах или километрах. При видимости от 1 до 10 км при отсутствии осадков обычно наблюдается дымка, при ухудшении видимости до 1 км и менее - туман. В сухую погоду видимость может ухудшаться дымом, пылью или мглою.
Явления - указаны атмосферные явления, наблюдавшиеся в срок или в последний час перед сроком; фигурными скобками обозначены явления, наблюдавшиеся между сроками (за 1-3 часа до срока); квадратными скобками обозначены град или гололедные отложения с указанием их диаметра в мм.
Облачность - указаны через наклонную черту общая и нижняя облачность в баллах и высота нижней границы облаков в метрах; квадратными скобками обозначены формы облаков: Ci - перистые, Cs - перисто-слоистые, Cc - перисто-кучевые, Ac - высококучевые, As - высокослоистые, Sc - слоисто-кучевые, Ns - слоисто-дождевые, Cu - кучевые, Cb - кучево-дождевые. Подробнее классификацию облаков см. в Атласе облаков (PDF).
T - Температура воздуха - температура, измеренная на высоте 2 м над землей.
Td - Температура точки росы - температура, при понижении до которой содержащийся в воздухе водяной пар достигнет насыщения.
f - Относительная влажность воздуха - влажноcть воздуха, измеренная на высоте 2 м над землей.
Te - Эффективная температура - температура, которую ощущает одетый по сезону человек в тени. Характеристика душности погоды. При расчете учитывается влияние влажности воздуха и скорости ветра на теплоощущения человека.
Tes - Эффективная температура на солнце - температура, которую ощущает человек, с поправкой на солнечный нагрев. Характеристика знойности погоды. Зависит от высоты солнца над горизонтом, облачности и скорости ветра. Ночью, в пасмурную погоду, а также при ветре 12 м/с и более поправка равна нулю.
P - Атмосферное давление - приведенное к уровню моря атмосферное давление.
Po - Атмосферное давление - измеренное на уровне метеостанции атмосферное давление.
Tmin - Минимальная температура - минимум температуры воздуха на высоте 2 м над землей.
Tmax - Максимальная температура - максимум температуры воздуха на высоте 2 м над землей.
R - Количество осадков - Количество выпавших осадков за период времени, мм. При наведении курсора мыши на число - период времени, за который выпало указанное количество осадков.
R24 - Количество осадков - Количество выпавших осадков за 24 часа, мм.
S - Снежный покров - Высота снежного покрова, см. При наведении курсора мыши на число - состояние снежного покрова и степень покрытия местности в баллах.